AXM2353 WMKC-WIII

Flight info

Callsign AXM2353
Flight time 2h 0m
Altitude 35000
Route DUBMU1A LERKA Y514 BEKSO Y512 VPK B469 BIDAK
Aircraft A320/M-SDE3FGHIRWY/LB1

Departure

Time 2026-04-14 13:16
Airport Sultan Ismail Petra Airport (WMKC)

Arrival

Time 2026-04-14 15:16
Airport Soekarno-Hatta International Airport (WIII)
Time Latitude Longitude Altitude Speed Heading
2026-04-14 12:49 6.16978 102.29073 22 ft 0 kts 10°
2026-04-14 13:02 6.16975 102.29072 22 ft 3 kts
2026-04-14 13:03 6.16951 102.29072 23 ft 4 kts 333°
2026-04-14 13:03 6.16932 102.29089 22 ft 4 kts 290°
2026-04-14 13:03 6.16929 102.29099 22 ft 0 kts 280°
2026-04-14 13:07 6.16938 102.29051 24 ft 12 kts 280°
2026-04-14 13:07 6.16951 102.28977 22 ft 9 kts 281°
2026-04-14 13:07 6.16962 102.28920 22 ft 7 kts 280°
2026-04-14 13:07 6.16968 102.28885 22 ft 0 kts 275°
2026-04-14 13:10 6.16965 102.28866 22 ft 5 kts 255°
2026-04-14 13:10 6.16943 102.28846 22 ft 4 kts 195°
2026-04-14 13:11 6.16925 102.28822 22 ft 8 kts 256°
2026-04-14 13:11 6.16930 102.28767 22 ft 7 kts 280°
2026-04-14 13:11 6.16938 102.28721 37 ft 6 kts 279°
2026-04-14 13:11 6.16934 102.28684 21 ft 5 kts 258°
2026-04-14 13:12 6.16929 102.28656 21 ft 4 kts 260°
2026-04-14 13:12 6.16925 102.28635 21 ft 2 kts 260°
2026-04-14 13:12 6.16923 102.28623 22 ft 1 kts 260°
2026-04-14 13:12 6.16917 102.28592 21 ft 6 kts 260°
2026-04-14 13:13 6.16917 102.28588 21 ft 0 kts 260°
2026-04-14 13:14 6.16906 102.28535 21 ft 11 kts 251°
2026-04-14 13:14 6.16851 102.28502 21 ft 8 kts 189°
2026-04-14 13:14 6.16816 102.28526 22 ft 5 kts 111°
2026-04-14 13:15 6.16814 102.28539 22 ft 0 kts 100°
2026-04-14 13:15 6.16812 102.28553 22 ft 18 kts 100°
2026-04-14 13:15 6.16744 102.28950 21 ft 93 kts 99°
2026-04-14 13:15 6.16605 102.29786 25 ft 147 kts 98°
2026-04-14 13:16 6.16436 102.30858 546 ft 157 kts 99°
2026-04-14 13:16 6.16243 102.31945 1228 ft 160 kts 104°
2026-04-14 13:16 6.15590 102.32891 1580 ft 181 kts 147°
2026-04-14 13:16 6.14331 102.33356 1821 ft 205 kts 161°
2026-04-14 13:17 6.12883 102.33807 2092 ft 230 kts 161°
2026-04-14 13:17 6.11276 102.34317 2437 ft 254 kts 161°
2026-04-14 13:17 6.09542 102.34875 2992 ft 267 kts 161°
2026-04-14 13:17 6.07744 102.35461 3667 ft 275 kts 161°
2026-04-14 13:18 6.05914 102.36062 4409 ft 279 kts 161°
2026-04-14 13:18 6.04059 102.36674 5157 ft 283 kts 162°
2026-04-14 13:18 6.02176 102.37295 5913 ft 286 kts 162°
2026-04-14 13:18 6.00276 102.37898 6670 ft 288 kts 167°
2026-04-14 13:19 5.98279 102.38133 7391 ft 290 kts 182°
2026-04-14 13:19 5.96259 102.37988 8140 ft 292 kts 185°
2026-04-14 13:19 5.94230 102.37823 8869 ft 294 kts 185°
2026-04-14 13:19 5.92178 102.37657 9620 ft 296 kts 185°
2026-04-14 13:20 5.90115 102.37492 10252 ft 301 kts 184°
2026-04-14 13:20 5.87946 102.37321 10413 ft 324 kts 184°
2026-04-14 13:20 5.85633 102.37140 10655 ft 340 kts 184°
2026-04-14 13:20 5.83253 102.36956 11179 ft 345 kts 184°
2026-04-14 13:21 5.80842 102.36773 11758 ft 349 kts 184°
2026-04-14 13:21 5.78418 102.36588 12370 ft 351 kts 184°
2026-04-14 13:21 5.75973 102.36400 12929 ft 354 kts 184°
2026-04-14 13:21 5.73506 102.36209 13505 ft 357 kts 184°
2026-04-14 13:22 5.71018 102.36014 14020 ft 359 kts 184°
2026-04-14 13:22 5.68483 102.35815 14513 ft 362 kts 184°
2026-04-14 13:22 5.65966 102.35618 14999 ft 365 kts 184°
2026-04-14 13:22 5.63427 102.35423 15484 ft 367 kts 184°
2026-04-14 13:23 5.60868 102.35228 15961 ft 370 kts 184°
2026-04-14 13:23 5.58296 102.35029 16437 ft 372 kts 184°
2026-04-14 13:23 5.55704 102.34824 16918 ft 375 kts 184°
2026-04-14 13:23 5.53096 102.34621 17394 ft 377 kts 184°
2026-04-14 13:24 5.50470 102.34600 17851 ft 379 kts 174°
2026-04-14 13:24 5.45380 102.36042 18659 ft 384 kts 158°
2026-04-14 13:24 5.42890 102.37041 19057 ft 386 kts 158°
2026-04-14 13:25 5.40387 102.38041 19448 ft 388 kts 158°
2026-04-14 13:25 5.37870 102.39045 19836 ft 390 kts 158°
2026-04-14 13:26 5.30234 102.42088 20932 ft 398 kts 158°
2026-04-14 13:26 5.27647 102.43120 21290 ft 401 kts 158°
2026-04-14 13:26 5.25054 102.44157 21653 ft 403 kts 158°
2026-04-14 13:26 5.22439 102.45204 22016 ft 405 kts 158°
2026-04-14 13:27 5.19817 102.46252 22370 ft 407 kts 158°
2026-04-14 13:27 5.18070 102.46948 22619 ft 408 kts 159°
2026-04-14 13:27 5.15392 102.48015 22977 ft 410 kts 159°
2026-04-14 13:27 5.11867 102.49425 23433 ft 413 kts 159°
2026-04-14 13:28 5.10063 102.50148 23628 ft 414 kts 159°
2026-04-14 13:28 5.07380 102.51221 23902 ft 416 kts 159°
2026-04-14 13:28 5.04681 102.52295 24186 ft 418 kts 159°
2026-04-14 13:28 5.01974 102.53372 24454 ft 420 kts 159°
2026-04-14 13:29 4.99251 102.54457 24748 ft 422 kts 158°
2026-04-14 13:29 4.96519 102.55548 25025 ft 424 kts 158°
2026-04-14 13:29 4.93775 102.56647 25301 ft 425 kts 158°
2026-04-14 13:29 4.91023 102.57748 25577 ft 427 kts 158°
2026-04-14 13:30 4.88253 102.58854 25850 ft 429 kts 158°
2026-04-14 13:30 4.85475 102.59961 26115 ft 430 kts 158°
2026-04-14 13:30 4.82690 102.61069 26381 ft 432 kts 158°
2026-04-14 13:30 4.79889 102.62182 26651 ft 434 kts 158°
2026-04-14 13:31 4.77079 102.63300 26907 ft 435 kts 158°
2026-04-14 13:31 4.74262 102.64424 27139 ft 437 kts 158°
2026-04-14 13:31 4.71433 102.65553 27396 ft 439 kts 158°
2026-04-14 13:31 4.68590 102.66687 27648 ft 440 kts 158°
2026-04-14 13:32 4.65737 102.67823 27896 ft 442 kts 158°
2026-04-14 13:32 4.62871 102.68965 28144 ft 444 kts 158°
2026-04-14 13:32 4.59998 102.70110 28394 ft 445 kts 158°
2026-04-14 13:32 4.57115 102.71257 28636 ft 447 kts 158°
2026-04-14 13:33 4.54218 102.72410 28864 ft 449 kts 158°
2026-04-14 13:33 4.51311 102.73567 29091 ft 450 kts 158°
2026-04-14 13:33 4.48392 102.74728 29313 ft 452 kts 158°
2026-04-14 13:33 4.45466 102.75893 29533 ft 453 kts 158°
2026-04-14 13:34 4.39602 102.78232 30053 ft 454 kts 158°
2026-04-14 13:34 4.36663 102.79402 30234 ft 455 kts 158°
2026-04-14 13:34 4.33719 102.80572 30419 ft 456 kts 158°
2026-04-14 13:35 4.30726 102.81761 30592 ft 458 kts 158°
2026-04-14 13:35 4.27759 102.82942 30763 ft 459 kts 158°
2026-04-14 13:35 4.24796 102.84122 31004 ft 458 kts 158°
2026-04-14 13:35 4.21833 102.85304 31247 ft 458 kts 158°
2026-04-14 13:36 4.18879 102.86483 31499 ft 457 kts 158°
2026-04-14 13:36 4.15923 102.87663 31734 ft 457 kts 158°
2026-04-14 13:36 4.12971 102.88840 31966 ft 457 kts 158°
2026-04-14 13:36 4.10019 102.90012 32211 ft 457 kts 159°
2026-04-14 13:37 4.07067 102.91184 32445 ft 456 kts 158°
2026-04-14 13:37 4.04113 102.92358 32682 ft 456 kts 159°
2026-04-14 13:37 4.01166 102.93531 32917 ft 456 kts 159°
2026-04-14 13:37 3.98214 102.94704 33165 ft 456 kts 159°
2026-04-14 13:38 3.95269 102.95875 33413 ft 455 kts 159°
2026-04-14 13:38 3.92328 102.97043 33663 ft 455 kts 159°
2026-04-14 13:38 3.89383 102.98211 33904 ft 455 kts 159°
2026-04-14 13:38 3.86439 102.99380 34121 ft 454 kts 159°
2026-04-14 13:39 3.83508 103.00547 34308 ft 454 kts 159°
2026-04-14 13:39 3.80590 103.01760 34515 ft 453 kts 154°
2026-04-14 13:39 3.77869 103.03354 34704 ft 454 kts 144°
2026-04-14 13:39 3.75452 103.05379 34861 ft 454 kts 135°
2026-04-14 13:40 3.73236 103.07617 34911 ft 451 kts 135°
2026-04-14 13:40 3.68831 103.12047 34912 ft 447 kts 135°
2026-04-14 13:41 3.64445 103.16434 34896 ft 445 kts 136°
2026-04-14 13:41 3.60066 103.20811 34897 ft 445 kts 136°
2026-04-14 13:42 3.55658 103.25213 34900 ft 445 kts 136°
2026-04-14 13:42 3.51282 103.29596 34906 ft 445 kts 135°
2026-04-14 13:43 3.46914 103.33982 34904 ft 445 kts 136°
2026-04-14 13:43 3.42542 103.38358 34902 ft 445 kts 136°
2026-04-14 13:44 3.37850 103.42352 34905 ft 443 kts 149°
2026-04-14 13:44 3.32310 103.45013 34901 ft 442 kts 156°
2026-04-14 13:45 3.26701 103.47532 34901 ft 442 kts 156°
2026-04-14 13:45 3.21092 103.50057 34903 ft 442 kts 156°
2026-04-14 13:46 3.15481 103.52586 34907 ft 442 kts 156°
2026-04-14 13:46 3.09871 103.55094 34911 ft 442 kts 156°
2026-04-14 13:47 3.04252 103.57588 34910 ft 442 kts 156°
2026-04-14 13:47 2.98633 103.60079 34911 ft 442 kts 156°
2026-04-14 13:48 2.93025 103.62579 34910 ft 442 kts 156°
2026-04-14 13:48 2.87408 103.65082 34908 ft 442 kts 156°
2026-04-14 13:49 2.81770 103.67612 34911 ft 441 kts 156°
2026-04-14 13:49 2.76162 103.70124 34908 ft 441 kts 156°
2026-04-14 13:50 2.70555 103.72634 34912 ft 442 kts 156°
2026-04-14 13:50 2.64956 103.75185 34915 ft 442 kts 155°
2026-04-14 13:51 2.59378 103.77761 34910 ft 442 kts 155°
2026-04-14 13:51 2.53784 103.80331 34903 ft 443 kts 155°
2026-04-14 13:52 2.48184 103.82895 34902 ft 443 kts 155°
2026-04-14 13:52 2.42576 103.85455 34903 ft 443 kts 155°
2026-04-14 13:53 2.36733 103.87342 34902 ft 443 kts 172°
2026-04-14 13:53 2.30597 103.87957 34904 ft 443 kts 174°
2026-04-14 13:54 2.24456 103.88551 34906 ft 444 kts 174°
2026-04-14 13:54 2.18310 103.89141 34902 ft 444 kts 174°
2026-04-14 13:55 2.12151 103.89731 34900 ft 444 kts 174°
2026-04-14 13:55 2.05998 103.90328 34903 ft 445 kts 174°
2026-04-14 13:56 1.99835 103.90917 34902 ft 445 kts 174°
2026-04-14 13:56 1.93631 103.91508 34905 ft 445 kts 174°
2026-04-14 13:57 1.87440 103.91524 34904 ft 445 kts 181°
2026-04-14 13:57 1.81241 103.91351 34901 ft 446 kts 181°
2026-04-14 13:58 1.75025 103.91235 34898 ft 447 kts 176°
2026-04-14 13:58 1.68812 103.91637 34900 ft 448 kts 175°
2026-04-14 13:59 1.62591 103.92042 34900 ft 448 kts 175°
2026-04-14 13:59 1.57417 103.92378 34903 ft 448 kts 175°
2026-04-14 14:00 1.51193 103.92774 34905 ft 448 kts 175°
2026-04-14 14:00 1.44964 103.93103 34901 ft 449 kts 181°
2026-04-14 14:01 1.38839 103.91961 34929 ft 450 kts 200°
2026-04-14 14:01 1.33004 103.89658 34928 ft 451 kts 201°
2026-04-14 14:02 1.27073 103.87488 34929 ft 451 kts 193°
2026-04-14 14:02 1.20854 103.87003 34919 ft 449 kts 173°
2026-04-14 14:03 1.14836 103.88546 34915 ft 448 kts 157°
2026-04-14 14:03 1.09020 103.90919 34907 ft 458 kts 157°
2026-04-14 14:04 1.03081 103.93318 34910 ft 458 kts 157°
2026-04-14 14:04 0.97233 103.95688 34918 ft 452 kts 157°
2026-04-14 14:05 0.91412 103.98043 34917 ft 451 kts 157°
2026-04-14 14:05 0.85593 104.00401 34918 ft 451 kts 157°
2026-04-14 14:06 0.79786 104.02760 34920 ft 451 kts 157°
2026-04-14 14:06 0.73977 104.05129 34915 ft 451 kts 156°
2026-04-14 14:07 0.68211 104.07587 34925 ft 450 kts 156°
2026-04-14 14:07 0.62472 104.10084 34926 ft 450 kts 156°
2026-04-14 14:08 0.56719 104.12563 34923 ft 450 kts 156°
2026-04-14 14:08 0.50967 104.15027 34922 ft 450 kts 156°
2026-04-14 14:09 0.45211 104.17489 34923 ft 450 kts 156°
2026-04-14 14:09 0.39429 104.19972 34918 ft 450 kts 156°
2026-04-14 14:10 0.33682 104.22437 34917 ft 449 kts 156°
2026-04-14 14:10 0.27941 104.24905 34923 ft 449 kts 156°
2026-04-14 14:11 0.22205 104.27369 34923 ft 448 kts 156°
2026-04-14 14:11 0.16472 104.29824 34920 ft 448 kts 156°
2026-04-14 14:12 0.10743 104.32278 34917 ft 448 kts 156°
2026-04-14 14:12 0.05015 104.34737 34916 ft 448 kts 156°
2026-04-14 14:13 -0.00710 104.37195 34918 ft 448 kts 156°
2026-04-14 14:13 -0.06439 104.39649 34915 ft 448 kts 156°
2026-04-14 14:14 -0.12168 104.42103 34911 ft 448 kts 156°
2026-04-14 14:14 -0.17913 104.44564 34911 ft 448 kts 156°
2026-04-14 14:15 -0.23644 104.47023 34912 ft 449 kts 156°
2026-04-14 14:15 -0.29378 104.49490 34912 ft 449 kts 156°
2026-04-14 14:16 -0.35116 104.51946 34913 ft 449 kts 156°
2026-04-14 14:16 -0.40852 104.54400 34916 ft 448 kts 156°
2026-04-14 14:17 -0.49481 104.58108 34927 ft 448 kts 156°
2026-04-14 14:17 -0.55252 104.60446 34925 ft 447 kts 158°
2026-04-14 14:18 -0.61048 104.62705 34917 ft 447 kts 158°
2026-04-14 14:18 -0.66844 104.64977 34916 ft 447 kts 158°
2026-04-14 14:19 -0.72622 104.67277 34919 ft 447 kts 158°
2026-04-14 14:19 -0.78393 104.69577 34916 ft 447 kts 158°
2026-04-14 14:20 -0.84170 104.71883 34914 ft 447 kts 157°
2026-04-14 14:20 -0.89955 104.74190 34915 ft 448 kts 158°
2026-04-14 14:21 -0.95739 104.76490 34919 ft 448 kts 158°
2026-04-14 14:21 -1.01527 104.78791 34920 ft 448 kts 158°
2026-04-14 14:22 -1.07311 104.81091 34923 ft 448 kts 158°
2026-04-14 14:22 -1.13100 104.83397 34925 ft 448 kts 157°
2026-04-14 14:23 -1.18880 104.85709 34927 ft 448 kts 157°
2026-04-14 14:23 -1.24665 104.88016 34928 ft 448 kts 157°
2026-04-14 14:24 -1.30454 104.90313 34923 ft 448 kts 158°
2026-04-14 14:24 -1.36279 104.92623 34933 ft 447 kts 158°
2026-04-14 14:25 -1.42059 104.94929 34934 ft 446 kts 158°
2026-04-14 14:25 -1.47818 104.97230 34937 ft 445 kts 157°
2026-04-14 14:26 -1.53575 104.99522 34929 ft 446 kts 157°
2026-04-14 14:26 -1.59338 105.01818 34923 ft 446 kts 158°
2026-04-14 14:27 -1.65105 105.04116 34923 ft 446 kts 157°
2026-04-14 14:27 -1.70868 105.06416 34923 ft 446 kts 158°
2026-04-14 14:28 -1.76631 105.08709 34928 ft 446 kts 158°
2026-04-14 14:28 -1.82390 105.11009 34922 ft 446 kts 157°
2026-04-14 14:29 -1.88145 105.13303 34920 ft 445 kts 158°
2026-04-14 14:29 -1.93899 105.15595 34923 ft 445 kts 158°
2026-04-14 14:30 -1.99653 105.17891 34929 ft 445 kts 158°
2026-04-14 14:30 -2.05401 105.20185 34929 ft 445 kts 158°
2026-04-14 14:31 -2.11150 105.22471 34924 ft 445 kts 158°
2026-04-14 14:31 -2.16904 105.24760 34921 ft 445 kts 158°
2026-04-14 14:32 -2.21715 105.26678 34917 ft 445 kts 158°
2026-04-14 14:32 -2.27461 105.28967 34927 ft 444 kts 158°
2026-04-14 14:33 -2.33218 105.31259 34912 ft 446 kts 158°
2026-04-14 14:33 -2.38983 105.33561 34899 ft 447 kts 158°
2026-04-14 14:34 -2.47656 105.37026 34903 ft 448 kts 158°
2026-04-14 14:35 -2.53438 105.39337 34902 ft 448 kts 158°
2026-04-14 14:35 -2.59194 105.41735 34911 ft 448 kts 156°
2026-04-14 14:36 -2.64910 105.44191 34917 ft 447 kts 156°
2026-04-14 14:36 -2.70623 105.46632 34920 ft 446 kts 157°
2026-04-14 14:37 -2.76371 105.49063 34914 ft 446 kts 157°
2026-04-14 14:37 -2.82083 105.51480 34916 ft 445 kts 157°
2026-04-14 14:38 -2.87786 105.53897 34914 ft 445 kts 157°
2026-04-14 14:38 -2.93495 105.56310 34914 ft 445 kts 157°
2026-04-14 14:39 -2.99191 105.58718 34922 ft 444 kts 156°
2026-04-14 14:39 -3.04866 105.61118 34926 ft 442 kts 156°
2026-04-14 14:40 -3.10441 105.63483 34932 ft 441 kts 156°
2026-04-14 14:40 -3.15857 105.65776 34926 ft 441 kts 156°
2026-04-14 14:41 -3.21517 105.68166 34918 ft 442 kts 156°
2026-04-14 14:41 -3.27187 105.70565 34915 ft 442 kts 156°
2026-04-14 14:42 -3.32848 105.72967 34915 ft 442 kts 156°
2026-04-14 14:42 -3.38516 105.75367 34917 ft 443 kts 156°
2026-04-14 14:43 -3.44190 105.77773 34919 ft 443 kts 156°
2026-04-14 14:43 -3.49864 105.80175 34920 ft 443 kts 156°
2026-04-14 14:44 -3.55538 105.82577 34925 ft 443 kts 156°
2026-04-14 14:44 -3.61255 105.84995 34925 ft 443 kts 156°
2026-04-14 14:45 -3.66930 105.87399 34924 ft 443 kts 156°
2026-04-14 14:45 -3.72601 105.89812 34931 ft 442 kts 156°
2026-04-14 14:46 -3.78266 105.92217 34934 ft 442 kts 156°
2026-04-14 14:46 -3.83928 105.94611 34936 ft 442 kts 156°
2026-04-14 14:47 -3.89594 105.97011 34932 ft 442 kts 156°
2026-04-14 14:47 -3.95255 105.99418 34934 ft 442 kts 156°
2026-04-14 14:48 -4.00911 106.01818 34936 ft 442 kts 156°
2026-04-14 14:48 -4.06760 106.03689 34932 ft 443 kts 168°
2026-04-14 14:49 -4.12827 106.04808 34932 ft 443 kts 168°
2026-04-14 14:49 -4.18895 106.05934 34904 ft 444 kts 168°
2026-04-14 14:49 -4.21937 106.06499 34673 ft 443 kts 168°
2026-04-14 14:50 -4.24955 106.07062 34449 ft 440 kts 168°
2026-04-14 14:50 -4.27957 106.07628 34223 ft 438 kts 168°
2026-04-14 14:50 -4.30948 106.08191 33995 ft 437 kts 168°
2026-04-14 14:50 -4.33929 106.08752 33753 ft 435 kts 168°
2026-04-14 14:51 -4.36896 106.09305 33498 ft 433 kts 168°
2026-04-14 14:51 -4.39858 106.09855 33249 ft 432 kts 168°
2026-04-14 14:51 -4.42809 106.10403 32997 ft 431 kts 168°
2026-04-14 14:51 -4.45742 106.10947 32546 ft 427 kts 168°
2026-04-14 14:52 -4.48695 106.11493 32030 ft 425 kts 168°
2026-04-14 14:52 -4.51594 106.12032 31514 ft 423 kts 168°
2026-04-14 14:52 -4.54482 106.12575 31009 ft 422 kts 168°
2026-04-14 14:52 -4.57362 106.13116 30508 ft 420 kts 168°
2026-04-14 14:53 -4.60231 106.13653 30004 ft 419 kts 168°
2026-04-14 14:53 -4.63084 106.14187 29460 ft 416 kts 168°
2026-04-14 14:53 -4.65921 106.14714 28984 ft 412 kts 168°
2026-04-14 14:53 -4.68728 106.15238 28500 ft 409 kts 168°
2026-04-14 14:54 -4.71510 106.15761 28053 ft 405 kts 168°
2026-04-14 14:54 -4.74268 106.16278 27596 ft 401 kts 168°
2026-04-14 14:54 -4.77000 106.16790 27146 ft 398 kts 168°
2026-04-14 14:54 -4.79710 106.17295 26707 ft 395 kts 168°
2026-04-14 14:55 -4.82398 106.17795 26260 ft 392 kts 168°
2026-04-14 14:55 -4.85070 106.18290 25812 ft 389 kts 168°
2026-04-14 14:55 -4.87728 106.18784 25368 ft 387 kts 168°
2026-04-14 14:55 -4.90372 106.19277 24906 ft 386 kts 168°
2026-04-14 14:56 -4.95641 106.20263 23965 ft 385 kts 168°
2026-04-14 14:56 -4.98274 106.20758 23477 ft 385 kts 168°
2026-04-14 14:56 -5.00908 106.21252 22933 ft 384 kts 168°
2026-04-14 14:57 -5.03530 106.21744 22452 ft 382 kts 168°
2026-04-14 14:57 -5.06136 106.22235 21973 ft 380 kts 168°
2026-04-14 14:57 -5.08733 106.22723 21496 ft 379 kts 168°
2026-04-14 14:57 -5.11315 106.23208 21029 ft 377 kts 168°
2026-04-14 14:58 -5.13891 106.23689 20561 ft 376 kts 168°
2026-04-14 14:58 -5.16454 106.24167 20098 ft 374 kts 168°
2026-04-14 14:58 -5.19011 106.24643 19636 ft 373 kts 168°
2026-04-14 14:58 -5.21557 106.25119 19177 ft 372 kts 168°
2026-04-14 14:59 -5.24100 106.25599 18728 ft 371 kts 168°
2026-04-14 14:59 -5.26638 106.26080 18271 ft 371 kts 168°
2026-04-14 14:59 -5.29190 106.26560 17806 ft 368 kts 168°
2026-04-14 14:59 -5.31693 106.27025 17423 ft 361 kts 168°
2026-04-14 15:00 -5.34135 106.27480 16895 ft 354 kts 168°
2026-04-14 15:00 -5.36551 106.27930 16465 ft 352 kts 168°
2026-04-14 15:00 -5.38952 106.28380 16049 ft 350 kts 168°
2026-04-14 15:00 -5.41340 106.28828 15632 ft 348 kts 168°
2026-04-14 15:01 -5.43722 106.29275 15216 ft 347 kts 169°
2026-04-14 15:01 -5.46090 106.29721 14803 ft 346 kts 169°
2026-04-14 15:01 -5.48447 106.30163 14392 ft 344 kts 169°
2026-04-14 15:01 -5.50800 106.30603 13981 ft 343 kts 169°
2026-04-14 15:02 -5.53135 106.31037 13645 ft 339 kts 169°
2026-04-14 15:02 -5.55463 106.31471 13157 ft 339 kts 169°
2026-04-14 15:02 -5.57768 106.31904 12743 ft 337 kts 169°
2026-04-14 15:02 -5.60045 106.32330 12367 ft 333 kts 169°
2026-04-14 15:03 -5.62319 106.32756 11975 ft 330 kts 169°
2026-04-14 15:03 -5.64578 106.33177 11549 ft 329 kts 169°
2026-04-14 15:03 -5.66813 106.33594 11268 ft 323 kts 169°
2026-04-14 15:03 -5.68981 106.34001 11141 ft 310 kts 169°
2026-04-14 15:04 -5.71057 106.34393 10736 ft 300 kts 169°
2026-04-14 15:04 -5.73095 106.34777 10176 ft 296 kts 169°
2026-04-14 15:04 -5.75107 106.35154 9595 ft 292 kts 169°
2026-04-14 15:04 -5.77076 106.35519 9146 ft 283 kts 169°
2026-04-14 15:05 -5.78970 106.35873 8766 ft 272 kts 169°
2026-04-14 15:05 -5.80211 106.36105 8511 ft 265 kts 169°
2026-04-14 15:05 -5.82577 106.36549 8026 ft 260 kts 169°
2026-04-14 15:05 -5.83779 106.36777 7776 ft 260 kts 169°
2026-04-14 15:06 -5.85559 106.37115 7398 ft 260 kts 169°
2026-04-14 15:06 -5.87345 106.37454 7015 ft 261 kts 169°
2026-04-14 15:06 -5.89132 106.37789 6631 ft 262 kts 169°
2026-04-14 15:06 -5.90930 106.38123 6221 ft 263 kts 169°
2026-04-14 15:07 -5.92730 106.38457 5813 ft 264 kts 169°
2026-04-14 15:07 -5.94515 106.38792 5407 ft 264 kts 169°
2026-04-14 15:07 -5.96070 106.39084 5052 ft 264 kts 169°
2026-04-14 15:07 -5.97871 106.39423 4639 ft 264 kts 169°
2026-04-14 15:08 -5.99682 106.39763 4209 ft 265 kts 169°
2026-04-14 15:08 -6.01496 106.40103 3784 ft 265 kts 169°
2026-04-14 15:08 -6.03310 106.40443 3357 ft 265 kts 169°
2026-04-14 15:08 -6.05116 106.40782 2924 ft 266 kts 169°
2026-04-14 15:09 -6.06924 106.41121 2633 ft 259 kts 168°
2026-04-14 15:09 -6.08647 106.41443 2572 ft 245 kts 168°
2026-04-14 15:09 -6.10282 106.41748 2477 ft 233 kts 169°
2026-04-14 15:09 -6.11840 106.42040 2382 ft 227 kts 169°
2026-04-14 15:10 -6.13389 106.42331 2283 ft 226 kts 168°
2026-04-14 15:10 -6.14929 106.42628 2185 ft 224 kts 165°
2026-04-14 15:10 -6.16353 106.43230 2086 ft 223 kts 146°
2026-04-14 15:10 -6.17490 106.44274 2028 ft 219 kts 127°
2026-04-14 15:11 -6.18188 106.45571 2029 ft 206 kts 108°
2026-04-14 15:11 -6.18441 106.46985 2031 ft 201 kts 90°
2026-04-14 15:11 -6.18262 106.48363 2033 ft 200 kts 73°
2026-04-14 15:11 -6.17766 106.49661 2042 ft 194 kts 69°
2026-04-14 15:12 -6.17294 106.50842 2028 ft 171 kts 69°
2026-04-14 15:12 -6.16870 106.51908 2022 ft 160 kts 69°
2026-04-14 15:12 -6.16463 106.52930 2026 ft 156 kts 69°
2026-04-14 15:12 -6.16064 106.53934 1973 ft 155 kts 69°
2026-04-14 15:13 -6.15664 106.54937 1822 ft 154 kts 70°
2026-04-14 15:13 -6.15275 106.55914 1673 ft 149 kts 70°
2026-04-14 15:13 -6.14895 106.56869 1471 ft 147 kts 69°
2026-04-14 15:13 -6.14515 106.57822 1282 ft 147 kts 70°
2026-04-14 15:14 -6.14162 106.58708 1107 ft 146 kts 71°
2026-04-14 15:14 -6.13785 106.59655 922 ft 146 kts 70°
2026-04-14 15:14 -6.13410 106.60593 764 ft 143 kts 71°
2026-04-14 15:14 -6.13043 106.61525 582 ft 143 kts 70°
2026-04-14 15:15 -6.12673 106.62447 393 ft 142 kts 70°
2026-04-14 15:15 -6.12301 106.63366 214 ft 140 kts 71°
2026-04-14 15:15 -6.11943 106.64273 60 ft 138 kts 70°
2026-04-14 15:15 -6.11607 106.65128 42 ft 117 kts 70°
2026-04-14 15:16 -6.11367 106.65725 39 ft 68 kts 68°
2026-04-14 15:16 -6.11274 106.65957 39 ft 27 kts 74°
2026-04-14 15:16 -6.11251 106.66146 40 ft 28 kts 99°
2026-04-14 15:16 -6.11303 106.66275 39 ft 18 kts 157°
2026-04-14 15:17 -6.11356 106.66237 36 ft 7 kts 243°
2026-04-14 15:17 -6.11375 106.66194 39 ft 6 kts 249°
2026-04-14 15:17 -6.11389 106.66157 39 ft 5 kts 249°
2026-04-14 15:17 -6.11402 106.66123 39 ft 7 kts 249°
2026-04-14 15:18 -6.11439 106.66030 38 ft 22 kts 248°
2026-04-14 15:18 -6.11488 106.65906 37 ft 18 kts 249°
2026-04-14 15:18 -6.11536 106.65792 38 ft 18 kts 247°
2026-04-14 15:18 -6.11579 106.65678 38 ft 17 kts 249°
2026-04-14 15:19 -6.11625 106.65585 38 ft 12 kts 221°
2026-04-14 15:19 -6.11695 106.65593 38 ft 11 kts 158°
2026-04-14 15:19 -6.11773 106.65625 38 ft 13 kts 158°
2026-04-14 15:19 -6.11863 106.65660 38 ft 14 kts 159°
2026-04-14 15:20 -6.11943 106.65626 38 ft 13 kts 214°
2026-04-14 15:20 -6.11979 106.65599 38 ft 1 kts 217°
2026-04-14 15:20 -6.11984 106.65595 38 ft 1 kts 217°
2026-04-14 15:20 -6.11986 106.65593 38 ft 0 kts 217°
2026-04-14 15:21 -6.11988 106.65592 38 ft 0 kts 217°